Location: Washington
(38.8950°N, 77.0370°W)
Time: 00:47:58
(UTC-04:00)

Tiangong 1 - Visible Passes

Search period start: 22 October 2014 00:00
Search period end: 01 November 2014 00:00
Orbit: 353 x 361 km, 42.8° (Epoch: 21 October)

Date Brightness Start Highest point End Pass type
(mag) Time Alt. Az. Time Alt. Az. Time Alt. Az.
22 Oct 1.5 19:43:53 10° SW 19:46:36 41° SSE 19:46:36 41° SSE visible
23 Oct 2.7 20:11:16 10° WSW 20:13:04 33° W 20:13:04 33° W visible
24 Oct 1.2 19:02:42 10° SW 19:05:37 55° SSE 19:07:42 17° E visible
24 Oct 4.4 20:38:56 10° W 20:39:21 13° W 20:39:21 13° W visible
25 Oct 1.1 19:29:59 10° W 19:32:57 62° NNW 19:33:49 39° NE visible
26 Oct 2.3 19:57:28 10° WNW 19:59:45 35° NW 19:59:45 35° NW visible
27 Oct 1.4 18:48:18 10° W 18:51:13 53° NNW 18:53:57 11° ENE visible
27 Oct 3.9 20:24:48 10° WNW 20:25:34 16° WNW 20:25:34 16° WNW visible
28 Oct 1.9 19:15:34 10° WNW 19:18:22 37° N 19:19:38 24° NE visible
29 Oct 1.9 19:42:37 10° WNW 19:45:13 37° N 19:45:13 37° N visible
30 Oct 1.9 18:33:12 10° WNW 18:36:00 36° N 18:38:47 10° ENE visible
30 Oct 3.3 20:09:24 10° WNW 20:10:42 23° WNW 20:10:42 23° WNW visible
31 Oct 1.6 19:00:00 10° WNW 19:02:50 41° N 19:04:33 20° ENE visible
31 Oct 4.6 20:36:03 10° WNW 20:36:08 11° WNW 20:36:08 11° WNW visible
